User: anonymous   Login
Location: Caltech
(34.1382°N, 118.1253°W)
Time: 11:04:25
(UTC-07:00)
Language:

Cosmos-2242 - Orbit

View from above orbital plane
View from above orbital plane
View from above satellite
View from above satellite

Ground track
Ground track

The orbit data is extracted from the following two-line orbital elements,

1 22626U 93024A   16125.89845857  .00000535  00000-0  56174-4 0  9995
2 22626  82.5234  66.6566 0020248  39.6533 320.6160 14.87433959245455
Epoch (UTC): 04 May 2016 21:33:46
Eccentricity: 0.0020248
inclination: 82.5234°
perigee height: 592 km
apogee height: 620 km
right ascension of ascending node: 66.6566°
argument of perigee: 39.6533°
revolutions per day: 14.87433959
mean anomaly at epoch: 320.6160°
orbit number at epoch: 24545

The dashed part of the orbit path shows where the satellite is in the earth's shadow,  

DLR